Weather History for LEZL - August, 2013

Change the Weather History Date:

Saturday, August 17, 2013

  Actual Average Record
Temperature  
Mean Temperature 82 °F -  
Max Temperature 96 °F 88 °F 100 °F (2002)
Min Temperature 69 °F 64 °F 59 °F (2001)
Cooling Degree Days 18    
Growing Degree Days 32 (Base 50)    
Moisture  
Dew Point 54 °F    
Average Humidity 39    
Maximum Humidity 73    
Minimum Humidity 18    
Precipitation  
Precipitation 0.00 in - - ()
Sea Level Pressure  
Sea Level Pressure 29.96 in    
Wind  
Wind Speed 5 mph ()    
Max Wind Speed 12 mph    
Max Gust Speed 18 mph    
Averages and records for this station are not official NWS values.
T = Trace of Precipitation, MM = Missing Value Source: Averaged Metar Reports

Daily Weather History Graph

Daily Weather History Graph

Search for Another Location

Airport or City:

Trip Planner

Search our weather history database for the weather conditions in past years. The results will help you decide how hot, cold, wet, or windy it might be!

Date:

Astronomy

Aug. 17, 2013 Rise Set
Actual Time 7:41 AM CEST 9:13 PM CEST
Civil Twilight 7:13 AM CEST 9:40 PM CEST
Nautical Twilight 6:40 AM CEST 10:13 PM CEST
Astronomical Twilight 6:05 AM CEST 10:48 PM CEST
Moon 6:13 PM CEST (8/17) 3:32 AM CEST (8/17)
Length of Visible Light 14h 27m
Length of Day
13h 31m
Waxing Gibbous, 82% of the Moon is Illuminated
Aug 17
Waxing Gibbous
Aug 21
Full
Aug 28
Last Quarter
Sep 5
New
Sep 12
First Quarter

Hourly Weather History & Observations

Time (CEST) Temp. Heat Index Dew Point Humidity Pressure Visibility Wind Dir Wind Speed Gust Speed Precip Events Conditions
12:00 AM 80.6 °F 80.5 °F 55.4 °F 42% 29.98 in - South 5.8 mph - N/A   Clear
12:30 AM 78.8 °F - 57.2 °F 47% 29.98 in - South 10.4 mph - N/A   Clear
1:00 AM 77.0 °F - 59.0 °F 54% 29.98 in - South 6.9 mph - N/A   Clear
4:30 AM 75.2 °F - 57.2 °F 53% 29.98 in - Variable 2.3 mph - N/A   Clear
5:00 AM 75.2 °F - 59.0 °F 57% 29.98 in - SSW 5.8 mph - N/A   Clear
5:30 AM 75.2 °F - 59.0 °F 57% 29.98 in - SW 8.1 mph - N/A   Clear
6:00 AM 73.4 °F - 59.0 °F 61% 29.98 in - Calm Calm - N/A   Clear
6:30 AM 71.6 °F - 59.0 °F 64% 29.98 in - ENE 1.2 mph - N/A   Clear
7:00 AM 69.8 °F - 60.8 °F 73% 29.98 in - SSE 1.2 mph - N/A   Clear
7:30 AM 69.8 °F - 60.8 °F 73% 29.98 in - SSE 2.3 mph - N/A   Clear
8:00 AM 69.8 °F - 59.0 °F 68% 29.98 in - SE 2.3 mph - N/A   Clear
8:30 AM 69.8 °F - 59.0 °F 68% 29.98 in - Variable 1.2 mph - N/A   Clear
9:00 AM 73.4 °F - 60.8 °F 65% 29.98 in - Variable 1.2 mph - N/A   Clear
9:30 AM 77.0 °F - 62.6 °F 61% 29.98 in - SSE 1.2 mph - N/A   Clear
10:00 AM 77.0 °F - 62.6 °F 61% 29.98 in - Variable 1.2 mph - N/A   Clear
10:30 AM 80.6 °F 81.5 °F 60.8 °F 51% 30.01 in - Calm Calm - N/A   Clear
11:00 AM 82.4 °F 82.9 °F 60.8 °F 48% 30.01 in - Calm Calm - N/A   Clear
11:30 AM 84.2 °F 83.5 °F 57.2 °F 40% 30.01 in - Variable 2.3 mph - N/A   Clear
12:00 PM 86.0 °F 84.5 °F 55.4 °F 35% 30.01 in - SW 5.8 mph - N/A   Clear
12:30 PM 87.8 °F 86.1 °F 55.4 °F 33% 30.01 in - SW 4.6 mph - N/A   Clear
1:00 PM 89.6 °F 87.3 °F 53.6 °F 29% 29.98 in - SW 4.6 mph - N/A   Clear
1:30 PM 89.6 °F 87.7 °F 55.4 °F 31% 29.98 in - SW 6.9 mph - N/A   Clear
2:00 PM 89.6 °F 88.1 °F 57.2 °F 33% 29.98 in - SW 8.1 mph - N/A   Clear
2:30 PM 91.4 °F - 51.8 °F 26% 29.98 in - SW 10.4 mph - N/A   Clear
3:00 PM 93.2 °F 90.8 °F 53.6 °F 26% 29.95 in - SW 6.9 mph 18.4 mph N/A   Clear
3:30 PM 93.2 °F 90.8 °F 53.6 °F 26% 29.95 in - SW 6.9 mph - N/A   Clear
4:00 PM 95.0 °F - 51.8 °F 23% 29.95 in - SW 9.2 mph - N/A   Clear
4:30 PM 95.0 °F - 50.0 °F 22% 29.95 in - SW 9.2 mph - N/A   Clear
5:00 PM 95.0 °F - 50.0 °F 22% 29.92 in - SW 10.4 mph - N/A   Clear
5:30 PM 95.0 °F - 48.2 °F 20% 29.92 in - SW 11.5 mph - N/A   Clear
6:00 PM 96.8 °F - 46.4 °F 18% 29.92 in - SW 10.4 mph - N/A   Clear
6:30 PM 95.0 °F - 46.4 °F 19% 29.92 in - SW 11.5 mph - N/A   Clear
7:00 PM 95.0 °F - 46.4 °F 19% 29.92 in - SW 10.4 mph - N/A   Clear
7:30 PM 95.0 °F - 48.2 °F 20% 29.92 in - SW 9.2 mph - N/A   Clear
8:00 PM 93.2 °F - 46.4 °F 20% 29.92 in - SW 10.4 mph - N/A   Clear
8:30 PM 91.4 °F - 44.6 °F 20% 29.92 in - SW 10.4 mph - N/A   Clear
9:00 PM 91.4 °F - 46.4 °F 21% 29.92 in - SW 10.4 mph - N/A   Clear
9:30 PM 89.6 °F - 44.6 °F 21% 29.92 in - SSW 9.2 mph - N/A   Clear
10:00 PM 87.8 °F - 44.6 °F 22% 29.92 in - SSW 9.2 mph - N/A   Clear
10:30 PM 87.8 °F - 44.6 °F 22% 29.95 in - SW 9.2 mph - N/A   Clear
11:00 PM 86.0 °F - 44.6 °F 23% 29.95 in - SW 8.1 mph - N/A   Clear
11:30 PM 84.2 °F - 44.6 °F 25% 29.95 in - SW 8.1 mph - N/A   Clear